Weather History for KPEQ - April, 2013

Change the Weather History Date:

Thursday, April 11, 2013

  Actual Average Record
Temperature  
Mean Temperature 55 °F -  
Max Temperature 74 °F 83 °F 102 °F (1972)
Min Temperature 36 °F 45 °F 33 °F (1978)
Degree Days  
Heating Degree Days 10    
Growing Degree Days 5 (Base 50)    
Moisture  
Dew Point 21 °F    
Average Humidity 33    
Maximum Humidity 57    
Minimum Humidity 13    
Precipitation  
Precipitation 0.00 in - - ()
Sea Level Pressure  
Sea Level Pressure 29.88 in    
Wind  
Wind Speed 6 mph (NW)    
Max Wind Speed 20 mph    
Max Gust Speed 30 mph    
Visibility 10 miles    
Events      
Averages and records for this station are not official NWS values.
T = Trace of Precipitation, MM = Missing Value Source: NWS Daily Summary

Daily Weather History Graph

Daily Weather History Graph

Search for Another Location

Airport or City:

Trip Planner

Search our weather history database for the weather conditions in past years. The results will help you decide how hot, cold, wet, or windy it might be!

Date:

Astronomy

Apr. 11, 2013 Rise Set
Actual Time 7:30 AM CDT 8:20 PM CDT
Civil Twilight 7:05 AM CDT 8:45 PM CDT
Nautical Twilight 6:36 AM CDT 9:14 PM CDT
Astronomical Twilight 6:06 AM CDT 9:44 PM CDT
Moon 8:08 AM CDT (4/11) 9:49 PM CDT (4/11)
Length of Visible Light 13h 39m
Length of Day
12h 50m
New Moon, 2% of the Moon is Illuminated
Apr 11
New Moon
Apr 18
First Quarter
Apr 25
Full
May 2
Last Quarter
May 9
New

Hourly Weather History & Observations

Time (CDT) Temp. Windchill Dew Point Humidity Pressure Visibility Wind Dir Wind Speed Gust Speed Precip Events Conditions
12:15 AM 46.2 °F 44.1 °F 21.2 °F 37% 29.96 in 10.0 mi NE 4.6 mph - N/A   Clear
12:35 AM 45.5 °F 43.2 °F 21.4 °F 38% 29.96 in 10.0 mi ENE 4.6 mph - N/A   Clear
12:55 AM 43.9 °F 41.3 °F 20.7 °F 40% 29.96 in 10.0 mi SE 4.6 mph - N/A   Clear
1:15 AM 41.9 °F 40.0 °F 19.4 °F 41% 29.96 in 10.0 mi SSE 3.5 mph - N/A   Clear
1:35 AM 41.2 °F 36.6 °F 19.9 °F 43% 29.96 in 10.0 mi SSE 6.9 mph - N/A   Clear
1:55 AM 40.3 °F 36.3 °F 20.1 °F 45% 29.96 in 10.0 mi South 5.8 mph - N/A   Clear
2:15 AM 40.8 °F - 20.1 °F 44% 29.96 in 10.0 mi Calm Calm - N/A   Clear
2:35 AM 40.8 °F - 20.1 °F 44% 29.96 in 10.0 mi Calm Calm - N/A   Clear
2:55 AM 42.4 °F - 22.1 °F 44% 29.95 in 10.0 mi Calm Calm - N/A   Clear
3:15 AM 40.6 °F 38.6 °F 20.3 °F 44% 29.95 in 10.0 mi NNW 3.5 mph - N/A   Clear
3:35 AM 40.3 °F 36.3 °F 21.2 °F 47% 29.95 in 10.0 mi NNW 5.8 mph - N/A   Clear
3:55 AM 40.5 °F 36.5 °F 21.2 °F 46% 29.93 in 10.0 mi NE 5.8 mph - N/A   Clear
4:15 AM 38.1 °F 32.9 °F 20.7 °F 49% 29.92 in 10.0 mi NNE 6.9 mph - N/A   Clear
4:35 AM 39.0 °F 34.0 °F 22.1 °F 51% 29.91 in 10.0 mi NNE 6.9 mph - N/A   Clear
4:55 AM 40.1 °F 36.1 °F 21.9 °F 48% 29.91 in 10.0 mi NNE 5.8 mph - N/A   Clear
5:15 AM 39.0 °F 34.8 °F 21.6 °F 50% 29.91 in 10.0 mi NE 5.8 mph - N/A   Clear
5:35 AM 38.7 °F 35.2 °F 21.4 °F 50% 29.91 in 10.0 mi NE 4.6 mph - N/A   Clear
5:55 AM 38.7 °F 36.3 °F 21.7 °F 51% 29.91 in 10.0 mi NE 3.5 mph - N/A   Clear
6:15 AM 38.3 °F 35.9 °F 22.1 °F 52% 29.91 in 10.0 mi North 3.5 mph - N/A   Clear
6:35 AM 38.3 °F 35.9 °F 22.1 °F 52% 29.91 in 10.0 mi North 3.5 mph - N/A   Clear
6:55 AM 38.3 °F - 22.1 °F 52% 29.92 in 10.0 mi Calm Calm - N/A   Clear
7:15 AM 36.0 °F 32.1 °F 21.7 °F 56% 29.91 in 10.0 mi North 4.6 mph - N/A   Clear
7:35 AM 36.1 °F 32.3 °F 22.1 °F 57% 29.92 in 10.0 mi North 4.6 mph - N/A   Clear
7:55 AM 36.7 °F 32.9 °F 22.6 °F 57% 29.92 in 10.0 mi NNW 4.6 mph - N/A   Clear
8:15 AM 37.6 °F 34.0 °F 21.9 °F 53% 29.93 in 10.0 mi NW 4.6 mph - N/A   Clear
8:35 AM 39.6 °F 36.3 °F 22.5 °F 50% 29.93 in 10.0 mi NNW 4.6 mph - N/A   Clear
8:55 AM 42.1 °F 39.2 °F 23.9 °F 49% 29.93 in 10.0 mi North 4.6 mph - N/A   Clear
9:15 AM 43.3 °F - 26.1 °F 51% 29.92 in 10.0 mi Calm Calm - N/A   Clear
9:35 AM 44.6 °F - 26.2 °F 49% 29.92 in 10.0 mi Calm Calm - N/A   Clear
9:55 AM 46.0 °F - 26.2 °F 46% 29.93 in 10.0 mi Calm Calm - N/A   Clear
10:15 AM 48.0 °F - 26.2 °F 43% 29.93 in 10.0 mi West 5.8 mph - N/A   Clear
10:35 AM 50.5 °F - 25.9 °F 38% 29.92 in 10.0 mi West 5.8 mph - N/A   Clear
11:15 AM 56.5 °F - 26.4 °F 32% 29.92 in 10.0 mi WNW 6.9 mph - N/A   Clear
12:35 PM 65.3 °F - 23.4 °F 20% 29.88 in 10.0 mi NW 11.5 mph 26.5 mph N/A   Clear
12:55 PM 67.1 °F - 21.0 °F 17% 29.88 in 10.0 mi WSW 19.6 mph 28.8 mph N/A   Clear
1:55 PM 69.8 °F - 21.2 °F 16% 29.85 in 10.0 mi WNW 18.4 mph 29.9 mph N/A   Clear
2:35 PM 71.4 °F - 21.0 °F 15% 29.84 in 10.0 mi West 15.0 mph 27.6 mph N/A   Clear
2:55 PM 72.5 °F - 20.3 °F 14% 29.83 in 10.0 mi West 16.1 mph 27.6 mph N/A   Clear
3:15 PM 72.9 °F - 20.5 °F 14% 29.83 in 10.0 mi West 11.5 mph 26.5 mph N/A   Clear
3:35 PM 73.4 °F - 20.7 °F 14% 29.82 in 10.0 mi WNW 12.7 mph 26.5 mph N/A   Clear
3:55 PM 73.4 °F - 20.1 °F 13% 29.82 in 10.0 mi WNW 17.3 mph 21.9 mph N/A   Clear
4:15 PM 74.3 °F - 20.7 °F 13% 29.80 in 10.0 mi WNW 13.8 mph 23.0 mph N/A   Clear
4:35 PM 73.8 °F - 20.7 °F 14% 29.79 in 10.0 mi West 8.1 mph 21.9 mph N/A   Clear
4:55 PM 74.5 °F - 20.5 °F 13% 29.79 in 10.0 mi WNW 11.5 mph 23.0 mph N/A   Clear
5:15 PM 73.8 °F - 20.3 °F 13% 29.78 in 10.0 mi NW 8.1 mph 18.4 mph N/A   Clear
5:35 PM 73.9 °F - 20.8 °F 14% 29.77 in 10.0 mi West 6.9 mph - N/A   Clear
5:55 PM 74.5 °F - 20.7 °F 13% 29.77 in 10.0 mi West 6.9 mph 18.4 mph N/A   Clear
6:15 PM 73.8 °F - 20.8 °F 14% 29.77 in 10.0 mi NNW 5.8 mph - N/A   Clear
6:35 PM 73.9 °F - 20.8 °F 14% 29.77 in 10.0 mi WNW 5.8 mph - N/A   Clear
6:55 PM 73.8 °F - 20.8 °F 14% 29.77 in 10.0 mi NW 4.6 mph - N/A   Clear
7:35 PM 72.5 °F - 20.3 °F 14% 29.77 in 10.0 mi Calm Calm - N/A   Clear
7:55 PM 71.8 °F - 21.0 °F 15% 29.77 in 10.0 mi Calm Calm - N/A   Clear
8:35 PM 64.4 °F - 19.2 °F 18% 29.77 in 10.0 mi ESE 5.8 mph - N/A   Clear
9:15 PM 58.5 °F - 17.1 °F 20% 29.79 in 10.0 mi East 6.9 mph - N/A   Clear
9:35 PM 57.2 °F - 16.5 °F 20% 29.80 in 10.0 mi ESE 6.9 mph - N/A   Clear
10:15 PM 54.3 °F - 16.0 °F 22% 29.81 in 10.0 mi SE 8.1 mph - N/A   Clear
10:55 PM 52.7 °F - 15.4 °F 23% 29.83 in 10.0 mi South 6.9 mph - N/A   Clear
11:15 PM 52.0 °F - 15.4 °F 24% 29.83 in 10.0 mi South 6.9 mph - N/A   Clear
11:35 PM 50.9 °F - 14.9 °F 24% 29.84 in 10.0 mi South 6.9 mph - N/A   Clear
11:55 PM 50.7 °F - 15.6 °F 25% 29.84 in 10.0 mi South 5.8 mph - N/A   Clear